Stündliche Wetter Czyzewo

Heute, 28 Oktober, Mittwoch

Zeit Temperatur Niederschläge Wind Luftdruck Luftfeuchtigkeit
00:00 +7°C° 0 mm 4 m/S 750 mmHg 76%
01:00 +7°C° 0 mm 4 m/S 750 mmHg 75%
02:00 +7°C° 0 mm 4 m/S 750 mmHg 76%
03:00 +7°C° 0 mm 4 m/S 749 mmHg 77%
04:00 +7°C° 0 mm 5 m/S 749 mmHg 78%
05:00 +7°C° 0 mm 5 m/S 749 mmHg 76%
06:00 +7°C° 0 mm 5 m/S 749 mmHg 75%
07:00 +7°C° 0 mm 5 m/S 749 mmHg 73%
08:00 +7°C° 0.1 mm 5 m/S 749 mmHg 74%
09:00 +7°C° 0.1 mm 5 m/S 750 mmHg 74%
10:00 +8°C° 0.1 mm 5 m/S 750 mmHg 75%
11:00 +8°C° 0.2 mm 5 m/S 750 mmHg 78%
12:00 +8°C° 0.2 mm 4 m/S 750 mmHg 81%
13:00 +8°C° 0.2 mm 4 m/S 750 mmHg 84%
14:00 +8°C° 0 mm 4 m/S 750 mmHg 83%
15:00 +9°C° 0 mm 3 m/S 750 mmHg 82%
16:00 +10°C° 0 mm 3 m/S 750 mmHg 81%
17:00 +10°C° 0 mm 3 m/S 750 mmHg 83%
18:00 +10°C° 0 mm 3 m/S 750 mmHg 85%
19:00 +10°C° 0 mm 3 m/S 750 mmHg 86%
20:00 +9°C° 0 mm 3 m/S 750 mmHg 88%
21:00 +9°C° 0 mm 3 m/S 751 mmHg 89%
22:00 +9°C° 0 mm 3 m/S 751 mmHg 91%
23:00 +9°C° 0 mm 3 m/S 751 mmHg 90%

Morgen, 29 Oktober, Donnerstag

Zeit Temperatur Niederschläge Wind Luftdruck Luftfeuchtigkeit
00:00 +8°C° 0 mm 4 m/S 751 mmHg 89%
01:00 +8°C° 0 mm 4 m/S 751 mmHg 89%
02:00 +8°C° 0 mm 4 m/S 750 mmHg 86%
03:00 +8°C° 0 mm 4 m/S 750 mmHg 84%
04:00 +7°C° 0 mm 4 m/S 749 mmHg 81%
05:00 +8°C° 0.3 mm 4 m/S 749 mmHg 84%
06:00 +8°C° 0.3 mm 4 m/S 749 mmHg 86%
07:00 +8°C° 0.3 mm 5 m/S 749 mmHg 89%
08:00 +9°C° 0.2 mm 5 m/S 749 mmHg 84%
09:00 +10°C° 0.2 mm 5 m/S 749 mmHg 80%
10:00 +10°C° 0.2 mm 6 m/S 750 mmHg 76%
11:00 +10°C° 0.1 mm 6 m/S 750 mmHg 73%
12:00 +10°C° 0.1 mm 6 m/S 750 mmHg 69%
13:00 +11°C° 0.1 mm 6 m/S 750 mmHg 66%
14:00 +10°C° 0.1 mm 5 m/S 751 mmHg 68%
15:00 +9°C° 0.1 mm 5 m/S 751 mmHg 70%
16:00 +8°C° 0.1 mm 4 m/S 752 mmHg 73%
17:00 +8°C° 0 mm 4 m/S 752 mmHg 74%
18:00 +7°C° 0 mm 4 m/S 753 mmHg 76%
19:00 +7°C° 0 mm 4 m/S 753 mmHg 78%
20:00 +7°C° 0 mm 4 m/S 754 mmHg 80%
21:00 +6°C° 0 mm 4 m/S 754 mmHg 82%
22:00 +6°C° 0 mm 4 m/S 755 mmHg 84%
23:00 +6°C° 0 mm 4 m/S 755 mmHg 86%

übermorgen, 30 Oktober, Freitag

Zeit Temperatur Niederschläge Wind Luftdruck Luftfeuchtigkeit
00:00 +5°C° 0 mm 3 m/S 755 mmHg 88%
01:00 +5°C° 0 mm 3 m/S 755 mmHg 90%
02:00 +5°C° 0 mm 3 m/S 755 mmHg 89%
03:00 +5°C° 0 mm 3 m/S 755 mmHg 88%
04:00 +5°C° 0 mm 3 m/S 755 mmHg 87%
05:00 +5°C° 0.2 mm 3 m/S 755 mmHg 88%
06:00 +5°C° 0.2 mm 3 m/S 754 mmHg 88%
07:00 +7°C° 0.2 mm 3 m/S 754 mmHg 89%
08:00 +7°C° 1.2 mm 3 m/S 753 mmHg 91%
09:00 +6°C° 1.2 mm 4 m/S 753 mmHg 93%
10:00 +7°C° 1.2 mm 4 m/S 753 mmHg 95%
11:00 +8°C° 1.6 mm 4 m/S 753 mmHg 95%
12:00 +8°C° 1.6 mm 4 m/S 752 mmHg 96%
13:00 +10°C° 1.6 mm 4 m/S 752 mmHg 96%
14:00 +11°C° 0.4 mm 4 m/S 752 mmHg 95%
15:00 +10°C° 0.4 mm 5 m/S 752 mmHg 95%
16:00 +12°C° 0.4 mm 5 m/S 753 mmHg 94%
17:00 +12°C° 0.3 mm 5 m/S 753 mmHg 94%
18:00 +12°C° 0.3 mm 5 m/S 754 mmHg 95%
19:00 +12°C° 0.3 mm 4 m/S 754 mmHg 95%
20:00 +12°C° 0.3 mm 4 m/S 755 mmHg 95%
21:00 +12°C° 0.3 mm 3 m/S 755 mmHg 96%
22:00 +12°C° 0.3 mm 3 m/S 756 mmHg 96%
23:00 +13°C° 0.1 mm 2 m/S 756 mmHg 96%

31 Oktober, Samstag

Zeit Temperatur Niederschläge Wind Luftdruck Luftfeuchtigkeit
00:00 +12°C° 0.1 mm 2 m/S 756 mmHg 96%
01:00 +12°C° 0.1 mm 2 m/S 757 mmHg 96%
02:00 +12°C° 0 mm 1 m/S 757 mmHg 96%
03:00 +12°C° 0 mm 1 m/S 758 mmHg 96%
04:00 +12°C° 0 mm 1 m/S 758 mmHg 96%
05:00 +12°C° 0 mm 1 m/S 758 mmHg 96%
06:00 +12°C° 0 mm 1 m/S 758 mmHg 96%
07:00 +12°C° 0 mm 1 m/S 758 mmHg 96%
08:00 +12°C° 0 mm 1 m/S 759 mmHg 96%
09:00 +12°C° 0 mm 1 m/S 759 mmHg 96%
10:00 +12°C° 0 mm 1 m/S 759 mmHg 95%
11:00 +13°C° 0 mm 2 m/S 759 mmHg 95%
12:00 +13°C° 0 mm 2 m/S 759 mmHg 95%
13:00 +13°C° 0 mm 2 m/S 759 mmHg 94%
14:00 +13°C° 0 mm 2 m/S 759 mmHg 94%
15:00 +14°C° 0 mm 2 m/S 759 mmHg 94%
16:00 +14°C° 0 mm 2 m/S 758 mmHg 94%
17:00 +12°C° 0 mm 3 m/S 758 mmHg 95%
18:00 +12°C° 0 mm 3 m/S 758 mmHg 96%
19:00 +12°C° 0 mm 3 m/S 758 mmHg 96%
20:00 +11°C° 0 mm 3 m/S 758 mmHg 96%
21:00 +11°C° 0 mm 3 m/S 758 mmHg 96%
22:00 +11°C° 0 mm 3 m/S 758 mmHg 96%
23:00 +11°C° 0 mm 4 m/S 758 mmHg 95%

1 November, Sonntag

Zeit Temperatur Niederschläge Wind Luftdruck Luftfeuchtigkeit
00:00 +10°C° 0 mm 4 m/S 758 mmHg 95%
01:00 +10°C° 0 mm 4 m/S 757 mmHg 94%
02:00 +10°C° 0 mm 4 m/S 757 mmHg 94%
03:00 +10°C° 0 mm 4 m/S 757 mmHg 93%
04:00 +8°C° 0 mm 4 m/S 756 mmHg 92%
05:00 +8°C° 0 mm 4 m/S 756 mmHg 93%
06:00 +8°C° 0 mm 4 m/S 756 mmHg 93%
07:00 +8°C° 0 mm 4 m/S 756 mmHg 94%
08:00 +10°C° 0 mm 4 m/S 756 mmHg 91%
09:00 +11°C° 0 mm 4 m/S 756 mmHg 87%
10:00 +13°C° 0 mm 4 m/S 756 mmHg 84%
11:00 +14°C° 0 mm 4 m/S 755 mmHg 80%
12:00 +14°C° 0 mm 5 m/S 755 mmHg 76%
13:00 +15°C° 0 mm 5 m/S 755 mmHg 73%
14:00 +15°C° 0 mm 4 m/S 755 mmHg 75%
15:00 +15°C° 0 mm 4 m/S 755 mmHg 77%
16:00 +14°C° 0 mm 4 m/S 754 mmHg 80%
17:00 +14°C° 0 mm 4 m/S 754 mmHg 82%
18:00 +13°C° 0 mm 4 m/S 754 mmHg 84%
19:00 +13°C° 0 mm 4 m/S 754 mmHg 86%
20:00 +13°C° 0 mm 4 m/S 754 mmHg 86%
21:00 +13°C° 0 mm 4 m/S 754 mmHg 85%
22:00 +13°C° 0 mm 4 m/S 754 mmHg 85%
23:00 +13°C° 0 mm 4 m/S 754 mmHg 84%

2 November, Montag

Zeit Temperatur Niederschläge Wind Luftdruck Luftfeuchtigkeit
00:00 +13°C° 0 mm 4 m/S 754 mmHg 83%
01:00 +13°C° 0 mm 4 m/S 754 mmHg 82%
02:00 +13°C° 0 mm 4 m/S 754 mmHg 81%
03:00 +13°C° 0 mm 4 m/S 753 mmHg 79%
04:00 +13°C° 0 mm 4 m/S 753 mmHg 78%
05:00 +13°C° 0 mm 4 m/S 753 mmHg 77%
06:00 +13°C° 0 mm 4 m/S 754 mmHg 76%
07:00 +13°C° 0 mm 4 m/S 754 mmHg 75%
08:00 +13°C° 0 mm 4 m/S 754 mmHg 74%
09:00 +14°C° 0 mm 4 m/S 754 mmHg 73%
10:00 +14°C° 0 mm 4 m/S 754 mmHg 72%
11:00 +15°C° 0 mm 4 m/S 754 mmHg 70%
12:00 +17°C° 0 mm 4 m/S 754 mmHg 69%
13:00 +17°C° 0 mm 4 m/S 755 mmHg 67%
14:00 +17°C° 0 mm 4 m/S 755 mmHg 70%
15:00 +16°C° 0 mm 3 m/S 755 mmHg 73%
16:00 +14°C° 0 mm 3 m/S 755 mmHg 76%
17:00 +14°C° 0 mm 3 m/S 755 mmHg 79%
18:00 +13°C° 0 mm 3 m/S 755 mmHg 82%
19:00 +13°C° 0 mm 3 m/S 755 mmHg 84%
20:00 +12°C° 0 mm 3 m/S 756 mmHg 84%
21:00 +13°C° 0 mm 2 m/S 756 mmHg 83%
22:00 +13°C° 0 mm 2 m/S 756 mmHg 83%
23:00 +13°C° 0 mm 2 m/S 756 mmHg 80%
Mehr zeigen

Wir brauchen deine Erlaubnis

Meteoprog und unser Service Anbieter werden persönliche Daten aufbewahren, so wie Cookies, Geräte Bezeichnung oder ähnliche Technologien von deinem Gerät und Prozess, so wie Persönliche Daten Inhalte und Werbungen, genauso wie social Media und den Verkehr zu analysieren.

  • Aufbewahrung und/oder Zugang zu deiner Geräte Informationen.

    Cookies, Geräte Bezeichnung oder andere Informationen, können aufbewahrt oder Zugang zu deinem Gerät erhalten, für den Grund, der oben angegeben wird.

  • Personalisierte Werbung und Inhalte, Messungen, Einblick in das Publikum und Produkt Entwicklung.

    Werbungen und Inhalte können personalisiert werden, basierend auf ein Profil. Mehr Daten können besser personalisierte Werbungen und Inhalte hinzufügen. Werbung und Inhalte können gezeigt und gemessen werden. Einblicke über das Publikum, welche die Werbung gesehen haben und den Inhalt, können abgeleitet werden. So wie Daten können genutzt werden, um es zu verbessern oder die Benutzer Erfahrung zu verbessern das System und die Software.

Wenn du “Ich stimme zu” klickst, erlaubst du uns, die Cookies zu benutzen die Geräte Bezeichnung, den Web oder ähnliche Technologien zu benutzen. Deine Settings, können in deinem Gerät bei deinem Browser geändert werden.

Für den bestimmten Zweck, berechtigten Interessen beruhen darauf, mehr als auf den Inhalt. Du kannst mehr darüber in unseren Privaten und Cookie Politik lesen.